Zurück zum Katalog

STARLINK-1407

AktivKommunikationVLEO
NORAD 45703·PAYLOAD·🇺🇸 United States

Gestartet Jun 4, 2020 von Cape Canaveral Space Force Station

Loading…

Nächste Überflüge (nächste 24 Stunden)

TLE

AktuellSource: CelesTrak SupGP

Epoche: Sep 15, 2026, 00:01 UTC

1 45703C 20035AY  26258.00118056  .00372240  00000+0  75123-3 0  2589
2 45703  53.0165  90.6688 0002225 289.1061 224.3908 15.98707190    12

Verfolge STARLINK-1407 in Echtzeit mit AllMySat

Download on the App Store